Muscle Shoals, AL

8:45 AM CDT on August 26, 2016 (GMT -0500)
Northwest Alabama Regional

Weather History for KMSL - September, 2013

Change the Weather History Date:

Sunday, September 15, 2013

  Actual Average Record
Temperature  
Mean Temperature 70 °F 74 °F  
Max Temperature 88 °F 85 °F 100 °F (1927)
Min Temperature 52 °F 62 °F 43 °F (1902)
Degree Days  
Heating Degree Days 0 0  
Month to date heating degree days 0 0  
Since 1 July heating degree days 0 0  
Cooling Degree Days 5 9  
Month to date cooling degree days 193 164  
Year to date cooling degree days 1674 1707  
Growing Degree Days 20 (Base 50)    
Moisture  
Dew Point 55 °F    
Average Humidity 61    
Maximum Humidity 93    
Minimum Humidity 29    
Precipitation  
Precipitation 0.00 in 0.13 in 1.86 in (1901)
Month to date precipitation 0.60 1.82  
Year to date precipitation 43.49 37.53  
Snow  
Snow 0.00 in - - ()
Month to date snowfall 0.0  
Since 1 July snowfall 0.0  
Since 1 September snowfall 0.0  
Snow Depth 0.00 in    
Sea Level Pressure  
Sea Level Pressure 30.09 in    
Wind  
Wind Speed 2 mph (SSW)    
Max Wind Speed 10 mph    
Max Gust Speed 13 mph    
Visibility 10 miles    
Events      
T = Trace of Precipitation, MM = Missing Value Source: NWS Daily Summary

Daily Weather History Graph

Daily Weather History Graph

Search for Another Location

Airport or City:

Trip Planner

Search our weather history database for the weather conditions in past years. The results will help you decide how hot, cold, wet, or windy it might be!

Date:

Astronomy

Sep. 15, 2013 Rise Set
Actual Time 6:33 AM CDT 6:56 PM CDT
Civil Twilight 6:08 AM CDT 7:22 PM CDT
Nautical Twilight 5:38 AM CDT 7:51 PM CDT
Astronomical Twilight 5:08 AM CDT 8:21 PM CDT
Moon 4:17 PM CDT (9/15) 2:19 AM CDT (9/15)
Length of Visible Light 13h 13m
Length of Day
12h 23m
Waxing Gibbous, 82% of the Moon is Illuminated
Sep 15
Waxing Gibbous
Sep 19
Full
Sep 26
Last Quarter
Oct 4
New
Oct 11
First Quarter

Hourly Weather History & Observations

Time (CDT) Temp. Heat Index Dew Point Humidity Pressure Visibility Wind Dir Wind Speed Gust Speed Precip Events Conditions
12:53 AM 57.0 °F - 53.1 °F 87% 30.06 in 10.0 mi Calm Calm - N/A   Clear
1:53 AM 55.9 °F - 52.0 °F 87% 30.06 in 10.0 mi Calm Calm - N/A   Clear
2:53 AM 55.9 °F - 52.0 °F 87% 30.07 in 10.0 mi Calm Calm - N/A   Clear
3:53 AM 54.0 °F - 51.1 °F 90% 30.07 in 10.0 mi Calm Calm - N/A   Clear
4:53 AM 54.0 °F - 51.1 °F 90% 30.07 in 10.0 mi Calm Calm - N/A   Clear
5:53 AM 54.0 °F - 50.0 °F 86% 30.09 in 10.0 mi Calm Calm - N/A   Clear
6:53 AM 55.0 °F - 52.0 °F 89% 30.11 in 10.0 mi Calm Calm - N/A   Clear
7:53 AM 61.0 °F - 57.0 °F 87% 30.11 in 10.0 mi SE 3.5 mph - N/A   Clear
8:53 AM 66.9 °F - 60.1 °F 79% 30.12 in 10.0 mi Calm Calm - N/A   Clear
9:53 AM 71.1 °F - 60.1 °F 68% 30.13 in 10.0 mi Variable 3.5 mph - N/A   Clear
10:53 AM 78.1 °F - 57.9 °F 50% 30.12 in 10.0 mi Calm Calm - N/A   Clear
11:53 AM 82.0 °F - 52.0 °F 35% 30.12 in 10.0 mi South 3.5 mph - N/A   Clear
12:53 PM 82.9 °F 81.9 °F 54.0 °F 37% 30.10 in 10.0 mi Variable 4.6 mph - N/A   Clear
1:53 PM 84.0 °F - 52.0 °F 33% 30.09 in 10.0 mi Variable 4.6 mph - N/A   Clear
2:53 PM 84.9 °F 83.2 °F 53.1 °F 33% 30.08 in 10.0 mi South 4.6 mph - N/A   Clear
3:53 PM 87.1 °F - 52.0 °F 30% 30.07 in 10.0 mi WSW 6.9 mph - N/A   Clear
4:53 PM 84.9 °F - 52.0 °F 32% 30.08 in 10.0 mi West 4.6 mph - N/A   Clear
5:53 PM 84.0 °F - 52.0 °F 33% 30.08 in 10.0 mi WSW 3.5 mph - N/A   Clear
6:53 PM 75.9 °F - 55.9 °F 50% 30.09 in 10.0 mi Calm Calm - N/A   Clear
7:53 PM 66.9 °F - 60.1 °F 79% 30.09 in 10.0 mi Calm Calm - N/A   Clear
8:53 PM 66.0 °F - 57.9 °F 75% 30.10 in 10.0 mi Calm Calm - N/A   Clear
9:53 PM 63.0 °F - 57.0 °F 81% 30.10 in 10.0 mi Calm Calm - N/A   Clear
10:53 PM 62.1 °F - 57.9 °F 86% 30.11 in 10.0 mi Calm Calm - N/A   Clear
11:53 PM 60.1 °F - 57.0 °F 90% 30.10 in 10.0 mi Calm Calm - N/A   Clear